Other Public Products
Issued by NWS Grand Forks, ND

Home | Current Version | Previous Version | Text Only | Print | Product List | Glossary Off
Versions: 1 2 3 4 5 6 7 8 9 10 11 12 13 14 15 16 17 18 19 20 21 22 23 24 25 26 27 28 29 30 31 32 33 34 35 36 37 38 39 40 41 42 43 44 45 46 47 48 49 50

578
FPUS83 KFGF 241831
OPUFGF
PRAIRIE TO PINES WEATHER ROUNDUP
NATIONAL WEATHER SERVICE EASTERN NORTH DAKOTA/GRAND FORKS ND
100 PM CDT WED AUG 24 2016

 **SATELLITE DATA USED TO AUGMENT SKY COVER AT AUTOMATED STATIONS**
 *****  WEATHER ACROSS EASTERN NORTH DAKOTA  *****

CITY           SKY/WX    TMP DP  RH WIND       PRES   REMARKS
GRAND FORKS    MOSUNNY   72  54  53 W18G28    29.86S
6HR MIN TEMP:  56; 6HR MAX TEMP:  72;

GRAND FORKS AF MOSUNNY   71  55  55 W18G26    29.88S
GRAND CITY NWS   N/A     72 N/A N/A W15         N/A
BUXTON           N/A     75  56  51 W17         N/A
DEVILS LAKE    CLOUDY    66  51  58 W18G24    29.91R
6HR MIN TEMP:  58; 6HR MAX TEMP:  67;

FARGO          MOSUNNY   74  53  48 W17G24    29.91R
6HR MIN TEMP:  56; 6HR MAX TEMP:  75;

WAHPETON ARPT  MOCLDY    72  50  46 W18       29.96R
$$

 *****  WEATHER ACROSS CENTRAL AND WESTERN NORTH DAKOTA  *****

CITY           SKY/WX    TMP DP  RH WIND       PRES   REMARKS
JAMESTOWN      PTSUNNY   70  53  54 W21G30    29.96S
6HR MIN TEMP:  56; 6HR MAX TEMP:  70;

BISMARCK       CLOUDY    68  48  48 W25G36    30.02S
6HR MIN TEMP:  57; 6HR MAX TEMP:  71;

MINOT          PTSUNNY   67  48  50 W25G33    29.92S
6HR MIN TEMP:  57; 6HR MAX TEMP:  69;

MINOT AFB      PTSUNNY   66  49  53 W23G32    29.91S
6HR MIN TEMP:  55; 6HR MAX TEMP:  67;

GARRISON         N/A     67  47  48 W22G38    29.97S
6HR MIN TEMP:  52; 6HR MAX TEMP:  67;

WILLISTON      CLOUDY    61  47  59 W17G28    30.03S
6HR MIN TEMP:  55; 6HR MAX TEMP:  64; 6HR PCP: TRACE;

DICKINSON      MOSUNNY   68  42  38 W24G35    30.06R
6HR MIN TEMP:  51; 6HR MAX TEMP:  68;

HETTINGER      MOSUNNY   70  47  43 W24G36    30.12F
6HR MIN TEMP:  51; 6HR MAX TEMP:  70;

$$

 *****  OTHER OBSERVATIONS NORTHEAST NORTH DAKOTA  *****

CITY           SKY/WX    TMP DP  RH WIND       PRES   REMARKS
WALHALLA       FAIR      68  64  88 W16G25    29.84R
LANGDON        CLOUDY    68  52  56 W16G24    29.87F
CAVALIER       MOCLDY    72  52  49 W21G26    29.84S
GRAFTON        FAIR      72  54  53 W21G26    29.87S
CANDO          MOCLDY    68  50  52 W22G28    29.90S
FORT TOTTEN      N/A     66  52  61 W9        29.95S
ROLLA          MOCLDY    64  50  59 W20G26    29.88R
RUGBY          NOT AVBL
 ***** THE ABOVE OBSERVATIONS ARE NON NWS ARE NOT QUALITY
        CONTROLLED AND MAY MIS-REPORT RAIN FOR SNOW...
$$

 *****  OTHER OBSERVATIONS SOUTHEAST NORTH DAKOTA *****

CITY           SKY/WX    TMP DP  RH WIND       PRES   REMARKS
COOPERSTOWN    NOT AVBL
VALLEY CITY    FAIR      70  54  56 W24G30    29.96S
OAKES            N/A    N/A N/A N/A MISG        N/A
GWINNER        FAIR      72  55  56 W15G21    29.99R
SHEYENNE NWR     N/A     71  52  50 NW14      29.95S
BUFFALO          N/A     71  49  45 W17         N/A
WYNDMERE       NOT AVBL
 ***** THE ABOVE OBSERVATIONS ARE NON NWS ARE NOT QUALITY
       CONTROLLED AND MAY MIS-REPORT RAIN FOR SNOW...
$$

  *****  WEATHER ACROSS NORTHERN MINNESOTA  *****

CITY           SKY/WX    TMP DP  RH WIND       PRES   REMARKS
FLAG ISLAND    SUNNY     75  50  41 W5        29.77R HAZE
WARROAD        SUNNY     72  59  64 W14G25    29.82S
ROSEAU         SUNNY     73  55  53 W15G23    29.82S
HALLOCK        MOSUNNY   73  52  46 W20G26    29.83S
THF RVR FALLS  PTSUNNY   71  53  52 W18       29.87S
6HR MIN TEMP:  56; 6HR MAX TEMP:  72;

HALSTAD          N/A     72  54  51 NW17        N/A
FOSSTON        MOSUNNY   72  54  53 W14       29.90R
BAUDETTE       SUNNY     76  54  46 W14G21    29.80S
6HR MIN TEMP:  65; 6HR MAX TEMP:  76;

WASKISH        SUNNY     73  57  56 W15G21    29.84S
CROOKSTON      SUNNY     72  54  53 W22G29    29.88S
$$
  *****  WEATHER ACROSS CENTRAL AND WEST MINNESOTA  *****

CITY           SKY/WX    TMP DP  RH WIND       PRES   REMARKS
BEMIDJI        SUNNY     73  54  52 W15G22    29.88R
PARK RAPIDS    SUNNY     75  52  44 W18G24    29.91R
6HR MIN TEMP:  62; 6HR MAX TEMP:  76;

WADENA         SUNNY     72  54  53 W18       29.92S
DETROIT LAKES  MOSUNNY   70  52  52 NW14      29.94S
MOORHEAD       MOSUNNY   73  54  49 W13G23    29.93R
FERGUS FALLS   CLOUDY    72  54  53 W14G21    29.96S
ELBOW LAKE     FAIR      72  56  58 NW12G20   29.97S
MORRIS MN      SUNNY     73  54  49 W15G21    29.98R
STAPLES        SUNNY     75  52  43 W10G21    29.92R
WHEATON        PTSUNNY   75  57  53 W14       30.00R
$$
  *****  WEATHER ELSEWHERE ACROSS MINNESOTA  *****

CITY           SKY/WX    TMP DP  RH WIND       PRES   REMARKS
DULUTH         MOSUNNY   76  66  71 NW12G22   29.83F
6HR MIN TEMP:  66; 6HR MAX TEMP:  76; 6HR PCP:  0.01;

INTRNTL FALLS  SUNNY     77  57  50 W9G18     29.79S
6HR MIN TEMP:  69; 6HR MAX TEMP:  77;

ELY            CLOUDY    72  66  83 W6        29.81S
CLOQUET        SUNNY     79  54  41 W10G17    29.85R
BRAINERD       SUNNY     78  50  37 W17       29.90R
6HR MIN TEMP:  67; 6HR MAX TEMP:  78;

HIBBING        SUNNY     78  55  44 W10       29.83F
6HR MIN TEMP:  57; 6HR MAX TEMP:  78;

ALEXANDRIA     SUNNY     73  55  53 W13       29.98R
6HR MIN TEMP:  64; 6HR MAX TEMP:  74;

SAINT CLOUD    SUNNY     79  57  46 NW14      29.91R
6HR MIN TEMP:  67; 6HR MAX TEMP:  80;

MINNEAPOLIS    PTSUNNY   80  63  55 NW9       29.91R
6HR MIN TEMP:  68; 6HR MAX TEMP:  80;

$$

  *****  WEATHER ACROSS SOUTH DAKOTA  *****

CITY           SKY/WX    TMP DP  RH WIND       PRES   REMARKS
SIOUX FALLS    CLOUDY    74  58  57 NW10      30.06R
6HR MIN TEMP:  60; 6HR MAX TEMP:  74;

BROOKINGS      CLOUDY    70  56  61 W10       30.04S
WATERTOWN      PTSUNNY   73  54  51 W13       30.04R
6HR MIN TEMP:  60; 6HR MAX TEMP:  73;

HURON          PTSUNNY   74  50  42 W13       30.06R
6HR MIN TEMP:  53; 6HR MAX TEMP:  76;

SISSETON         N/A     73  53  49 NW16G23   29.97R
ABERDEEN       CLOUDY    73  52  47 W16G24    30.02S
6HR MIN TEMP:  56; 6HR MAX TEMP:  74;

MITCHELL       CLOUDY    70  57  63 NW8       30.09R
PIERRE         CLOUDY    70  49  47 NW14      30.10S
6HR MIN TEMP:  55; 6HR MAX TEMP:  70;

MOBRIDGE       CLOUDY    76  49  38 NW17G26   30.04F
RAPID CITY     MOSUNNY   72  46  39 N8        30.19F
6HR MIN TEMP:  57; 6HR MAX TEMP:  72;

$$

  *****  SOME WEATHER IN NEARBY STATES *****

CITY           SKY/WX    TMP DP  RH WIND       PRES   REMARKS
GLASGOW MT     CLOUDY    57  46  66 NW25      30.16R
6HR MIN TEMP:  54; 6HR MAX TEMP:  57;

GREAT FALLS MT PTSUNNY   61  39  44 N12       30.36S
6HR MIN TEMP:  50; 6HR MAX TEMP:  63;

CHEYENNE WY    CLOUDY    60  44  55 S16       30.29F
6HR MIN TEMP:  55; 6HR MAX TEMP:  61; 6HR PCP:  0.03;

SCOTTSBLUFF NE CLOUDY    68  44  42 E7        30.22F
6HR MIN TEMP:  57; 6HR MAX TEMP:  68;

OMAHA NE       PTSUNNY   82  64  54 NE12      29.99F
6HR MIN TEMP:  69; 6HR MAX TEMP:  82;

DES MOINES IA  CLOUDY    81  71  71 W9        29.96F
6HR MIN TEMP:  68; 6HR MAX TEMP:  83;

DAVENPORT IA   MOSUNNY   83  71  67 W10       29.96R
6HR MIN TEMP:  72; 6HR MAX TEMP:  83; 6HR PCP:  0.07;

CHICAGO IL     CLOUDY    78  71  79 S20       29.92S
6HR MIN TEMP:  71; 6HR MAX TEMP:  79; 6HR PCP:  0.19;

EAU CLAIRE WI  MOSUNNY   79  66  64 W12       29.88R
6HR MIN TEMP:  67; 6HR MAX TEMP:  79;

LA CROSSE WI   CLOUDY    77  50  39 S8        29.89R
6HR MIN TEMP:  69; 6HR MAX TEMP:  77; 6HR PCP:  0.03;

$$

  *****  SOME NATIONAL WEATHER *****

CITY           SKY/WX    TMP DP  RH WIND       PRES   REMARKS
LA GUARDIA NY  MOSUNNY   88  56  33 VRB6      30.21F
6HR MIN TEMP:  75; 6HR MAX TEMP:  88;                              C1F1C2F2C3F3C4F4C5F5C6F6C7F7C8F8C9F9CaFaCbFbCcFcCdFdCe!



USA.gov is the U.S. government's official web portal to all federal, state and local government web resources and services.